FW5485 Weather Reports


Display with metric or nautical units.
time (UTC)temp
F
wind
direction
speed
MPH
gust
MPH
rain 1hr
in
rain 24hr
in
rain mn
in
humidity
%
barometer
mb
20260507211036 56 0 1.0 2.0 0.00 0.18 0.18 83 1010.1
20260507210016 55 0.0 1.0 0.00 0.18 0.18 85 1010.2
20260507205016 55 0.0 2.0 0.00 0.18 0.18 85 1010.2
20260507204016 55 0.0 2.0 0.01 0.18 0.18 88 1009.8
20260507203016 55 0.0 2.0 0.01 0.18 0.18 86 1010.2
20260507202016 54 0 1.0 2.0 0.02 0.18 0.18 87 1010.3
20260507201016 54 0.0 2.0 0.02 0.18 0.18 89 1010.4
20260507200016 54 0 1.0 2.0 0.02 0.18 0.18 85 1010.9
20260507195016 54 0 1.0 2.0 0.02 0.18 0.18 87 1010.6
20260507194036 54 0 1.0 2.0 0.03 0.17 0.17 89 1010.8
20260507193015 53 0.0 1.0 0.04 0.17 0.17 91 1011.1
20260507192016 53 0.0 1.0 0.03 0.16 0.16 88 1011.3
20260507191015 53 0.0 1.0 0.03 0.16 0.16 90 1011.2
20260507190016 53 0.0 2.0 0.03 0.16 0.16 90 1011.3
20260507185016 53 0.0 1.0 0.03 0.16 0.16 90 1011.3
20260507184036 52 0.0 1.0 0.05 0.14 0.14 89 1011.3
20260507183016 53 0.0 2.0 0.06 0.13 0.13 88 1011.4
20260507182036 53 0 1.0 3.0 0.06 0.13 0.13 88 1011.2
20260507181015 53 0.0 2.0 0.06 0.13 0.13 90 1011.3
20260507180015 53 0.0 2.0 0.07 0.13 0.13 89 1011.3
20260507175015 53 0.0 1.0 0.07 0.13 0.13 89 1011.5
20260507174015 54 0.0 2.0 0.03 0.09 0.09 86 1011.7
20260507173016 54 0 1.0 3.0 0.01 0.07 0.07 84 1011.7
20260507172015 55 0 1.0 2.0 0.01 0.07 0.07 85 1011.4
20260507171035 55 0.0 2.0 0.01 0.07 0.07 86 1011.7
20260507170015 55 0.0 2.0 0.00 0.06 0.06 84 1011.9
20260507165016 56 0 2.0 8.0 0.00 0.06 0.06 84 1011.9
20260507164015 56 0.0 1.0 0.00 0.06 0.06 88 1011.7
20260507163015 55 0.0 3.0 0.00 0.06 0.06 86 1011.9
20260507162015 56 0.0 3.0 0.00 0.06 0.06 90 1012.1
20260507161015 55 0.0 2.0 0.00 0.06 0.06 90 1012.2
20260507160015 55 0.0 1.0 0.00 0.06 0.06 90 1012.4
20260507155015 55 0.0 1.0 0.00 0.06 0.06 91 1012.5
20260507154015 55 0 1.0 3.0 0.00 0.06 0.06 90 1012.5
20260507153015 54 0 1.0 2.0 0.00 0.06 0.06 91 1012.4
20260507152015 54 0.0 1.0 0.00 0.06 0.06 92 1012.5
20260507151015 54 0.0 1.0 0.01 0.06 0.06 92 1012.3
20260507150015 54 0 1.0 2.0 0.02 0.06 0.06 92 1012.5
20260507145015 54 0.0 0.0 0.02 0.06 0.06 92 1012.3
20260507144015 54 0.0 2.0 0.03 0.06 0.06 92 1012.2
20260507143015 54 0 1.0 3.0 0.04 0.06 0.06 92 1012.4
20260507142035 54 0.0 0.0 0.04 0.06 0.06 92 1012.4
20260507141015 54 0.0 0.0 0.03 0.05 0.05 92 1012.5
20260507140015 54 0.0 1.0 0.02 0.04 0.04 92 1012.6
20260507135015 54 0.0 1.0 0.02 0.04 0.04 92 1012.6
20260507134015 54 0.0 1.0 0.01 0.03 0.03 91 1012.7
20260507133015 54 0.0 2.0 0.00 0.02 0.02 91 1012.4
20260507132017 55 0.0 2.0 0.01 0.03 0.02 91 1012.5
20260507131017 54 0.0 0.0 0.01 0.03 0.02 92 1012.4
20260507130017 54 0.0 2.0 0.01 0.04 0.02 91 1012.7
20260507125037 54 0.0 0.0 0.01 0.05 0.02 90 1012.4
20260507124017 54 0.0 0.0 0.01 0.05 0.02 90 1012.3
20260507123016 54 0.0 0.0 0.01 0.05 0.02 91 1012.4
20260507122016 54 0.0 0.0 0.00 0.04 0.01 90 1012.3
20260507121017 54 0.0 0.0 0.00 0.04 0.01 90 1012.2
20260507120036 54 0.0 1.0 0.00 0.04 0.01 89 1012.3
20260507115017 55 0.0 1.0 0.00 0.04 0.01 89 1012.1
20260507114017 55 0.0 2.0 0.00 0.04 0.01 89 1011.9
20260507113037 55 0.0 0.0 0.00 0.04 0.01 89 1011.9
20260507112036 55 0.0 1.0 0.01 0.04 0.01 89 1011.9
20260507111016 55 0.0 2.0 0.01 0.04 0.01 89 1011.6
20260507110017 55 0.0 1.0 0.01 0.04 0.01 88 1011.2
20260507105016 55 0.0 1.0 0.01 0.04 0.01 88 1011.2
20260507104017 56 0.0 2.0 0.01 0.04 0.01 88 1011.3
20260507103017 56 0 1.0 2.0 0.01 0.04 0.01 87 1011.4
20260507102016 56 0.0 2.0 0.00 0.03 0.00 88 1011.0
20260507101016 56 0.0 1.0 0.00 0.03 0.00 87 1011.3
20260507100016 57 0 1.0 3.0 0.00 0.03 0.00 88 1011.2
20260507095036 57 0 1.0 4.0 0.00 0.03 0.00 89 1010.6
20260507094016 58 0 1.0 2.0 0.00 0.03 0.00 90 1010.4
20260507093016 58 0 1.0 4.0 0.00 0.03 0.00 90 1011.1
20260507092016 58 0.0 4.0 0.00 0.03 0.00 90 1011.1
20260507091016 58 0 1.0 4.0 0.00 0.03 0.00 90 1010.6
20260507090016 58 0.0 2.0 0.00 0.03 0.00 91 1010.8
20260507085016 59 0 1.0 3.0 0.00 0.03 0.00 90 1010.4
20260507084016 59 0.0 2.0 0.00 0.03 0.00 91 1010.5
20260507083016 60 0.0 2.0 0.00 0.03 0.00 90 1010.6
20260507082016 60 0 1.0 3.0 0.00 0.03 0.00 90 1010.6
20260507081016 62 0.0 1.0 0.00 0.03 0.00 91 1010.1
20260507080016 63 0 1.0 4.0 0.00 0.03 0.00 93 1010.2
20260507075016 64 0.0 0.0 0.00 0.03 0.00 94 1009.9
20260507074016 64 0.0 0.0 0.00 0.03 0.00 94 1010.3
20260507073016 64 0.0 0.0 0.00 0.03 0.00 94 1010.0
20260507072016 64 0.0 0.0 0.00 0.03 0.00 93 1009.9
20260507071016 64 0.0 0.0 0.00 0.03 0.00 93 1009.8
20260507070016 64 0.0 0.0 0.00 0.03 0.00 93 1009.3
20260507065016 64 0.0 0.0 0.00 0.03 0.00 92 1009.0
20260507064016 65 0.0 0.0 0.00 0.03 0.00 92 1009.5
20260507063016 65 0.0 0.0 0.00 0.03 0.00 93 1009.6
20260507062016 65 0.0 1.0 0.00 0.03 0.00 93 1009.7
20260507061016 65 0 2.0 3.0 0.00 0.03 0.00 93 1009.8
20260507060016 64 0.0 1.0 0.00 0.03 0.00 93 1009.3
20260507055016 64 0.0 2.0 0.00 0.03 0.00 93 1009.1
20260507054016 64 0.0 2.0 0.00 0.03 0.00 93 1008.6
20260507053016 64 0.0 0.0 0.00 0.03 0.00 93 1008.9
20260507052015 64 0.0 2.0 0.00 0.03 0.00 93 1008.8
20260507051036 64 0 1.0 4.0 0.00 0.03 0.00 93 1008.9
20260507050016 64 0.0 0.0 0.00 0.03 0.00 92 1008.7
20260507045015 64 0.0 1.0 0.00 0.03 0.00 92 1009.2
20260507044016 64 0 1.0 3.0 0.00 0.03 0.00 92 1009.3
20260507043036 64 0.0 2.0 0.00 0.03 0.00 92 1009.7
20260507042016 64 0.0 2.0 0.00 0.03 0.00 91 1009.9
20260507041016 64 0.0 1.0 0.00 0.03 0.00 91 1010.2
20260507040015 64 0.0 0.0 0.00 0.03 0.03 90 1010.3
20260507035015 65 0.0 0.0 0.00 0.03 0.03 89 1009.8
20260507034035 65 0.0 0.0 0.00 0.03 0.03 88 1009.9
20260507033036 65 0.0 0.0 0.00 0.03 0.03 89 1010.0
20260507032015 65 0.0 0.0 0.00 0.03 0.03 89 1010.4
20260507031015 65 0.0 0.0 0.00 0.03 0.03 88 1010.1
20260507030015 65 0.0 0.0 0.00 0.03 0.03 88 1010.0
20260507025017 65 0.0 0.0 0.00 0.03 0.03 88 1010.1
20260507024017 65 0.0 1.0 0.00 0.03 0.03 89 1009.7
20260507023017 65 0.0 1.0 0.00 0.03 0.03 88 1009.3
20260507022017 65 0.0 1.0 0.00 0.03 0.03 88 1009.0
20260507021016 65 0.0 0.0 0.00 0.03 0.03 87 1009.1
20260507020017 65 0.0 0.0 0.00 0.03 0.03 87 1009.3
20260507015016 66 0.0 1.0 0.00 0.03 0.03 86 1009.7
20260507014036 66 0.0 0.0 0.00 0.03 0.03 85 1009.6
20260507013017 66 0.0 0.0 0.00 0.03 0.03 85 1009.7
20260507012040 67 0.0 1.0 0.00 0.03 0.03 84 1009.8
20260507011016 67 0.0 0.0 0.00 0.03 0.03 83 1009.9
20260507010016 68 0.0 0.0 0.00 0.03 0.03 82 1009.8
20260507005017 68 0.0 1.0 0.00 0.03 0.03 82 1009.7
20260507004016 68 0.0 1.0 0.00 0.03 0.03 81 1009.7
20260507003016 69 0.0 1.0 0.00 0.03 0.03 80 1009.5
20260507002016 69 0.0 1.0 0.00 0.03 0.03 80 1009.6
20260507001016 69 0 1.0 2.0 0.00 0.03 0.03 80 1009.8
20260507000016 70 0 1.0 5.0 0.00 0.03 0.03 78 1009.5
20260506235016 70 0 1.0 3.0 0.00 0.03 0.03 79 1009.4
20260506234016 70 0.0 1.0 0.00 0.03 0.03 80 1009.6
20260506233016 70 0.0 2.0 0.00 0.03 0.03 79 1009.6
20260506232016 70 0 1.0 3.0 0.00 0.03 0.03 78 1009.5
20260506231016 70 0 1.0 3.0 0.00 0.03 0.03 78 1009.2
20260506230036 71 0 1.0 5.0 0.00 0.03 0.03 78 1009.5
20260506225036 71 0 2.0 6.0 0.00 0.03 0.03 77 1009.2
20260506224036 71 0 2.0 6.0 0.00 0.03 0.03 77 1009.1
20260506223016 71 0 2.0 8.0 0.00 0.03 0.03 77 1009.2
20260506222016 71 0 2.0 6.0 0.00 0.03 0.03 77 1009.2
20260506221016 71 0 1.0 3.0 0.00 0.03 0.03 78 1009.3
20260506220016 71 0 2.0 5.0 0.00 0.03 0.03 77 1009.3
20260506215016 70 0 1.0 4.0 0.00 0.03 0.03 78 1009.3
20260506214016 70 0 2.0 6.0 0.00 0.03 0.03 79 1009.2
20260506213016 70 0 1.0 4.0 0.00 0.03 0.03 79 1009.0
20260506212016 71 0 2.0 4.0 0.00 0.03 0.03 78 1009.0